| time (UTC) | temp C | wind direction | speed KPH | gust KPH | rain 1hr cm | rain 24hr cm | rain mn cm | humidity % | barometer mb |
| 20260505234630 | 23 | 132 | 0.0 | 6.4 | 0.00 | 0.00 | 0.00 | 96 | 1011.4 |
| 20260505233730 | 23 | 0 | 0.0 | 0.0 | 0.00 | 0.00 | 0.00 | 95 | 1011.4 |
| 20260505232828 | 23 | 0 | 0.0 | 0.0 | 0.00 | 0.00 | 0.00 | 94 | 1011.1 |
| 20260505231928 | 23 | 0 | 0.0 | 0.0 | 0.00 | 0.00 | 0.00 | 95 | 1011.4 |
| 20260505231028 | 23 | 0 | 0.0 | 0.0 | 0.00 | 0.00 | 0.00 | 95 | 1011.1 |
| 20260505230130 | 23 | 0 | 0.0 | 0.0 | 0.00 | 0.00 | 0.00 | 95 | 1011.0 |
| 20260505225228 | 23 | 0 | 0.0 | 0.0 | 0.00 | 0.00 | 0.00 | 95 | 1011.1 |
| 20260505223428 | 23 | 0 | 0.0 | 0.0 | 0.00 | 0.00 | 0.00 | 94 | 1011.1 |
| 20260505222528 | 23 | 87 | 0.0 | 3.2 | 0.00 | 0.00 | 0.00 | 94 | 1010.6 |
| 20260505221628 | 24 | 0 | 0.0 | 0.0 | 0.00 | 0.00 | 0.00 | 93 | 1010.8 |
| 20260505220728 | 24 | 0 | 0.0 | 0.0 | 0.00 | 0.00 | 0.00 | 92 | 1010.8 |
| 20260505215828 | 25 | 0 | 0.0 | 0.0 | 0.00 | 0.00 | 0.00 | 91 | 1010.7 |
| 20260505214928 | 25 | 0 | 0.0 | 0.0 | 0.00 | 0.00 | 0.00 | 91 | 1010.5 |
| 20260505214030 | 25 | 0 | 0.0 | 0.0 | 0.00 | 0.00 | 0.00 | 90 | 1010.5 |
| 20260505212228 | 26 | 0 | 0.0 | 0.0 | 0.00 | 0.00 | 0.00 | 87 | 1010.6 |
| 20260505211330 | 26 | 0 | 0.0 | 0.0 | 0.00 | 0.00 | 0.00 | 85 | 1010.5 |
| 20260505210428 | 27 | 0 | 0.0 | 0.0 | 0.00 | 0.00 | 0.00 | 81 | 1010.6 |
| 20260505205529 | 27 | 0 | 0.0 | 0.0 | 0.00 | 0.00 | 0.00 | 79 | 1010.6 |
| 20260505204628 | 28 | 62 | 0.0 | 3.2 | 0.00 | 0.00 | 0.00 | 79 | 1010.4 |
| 20260505202828 | 28 | 359 | 3.2 | 6.4 | 0.00 | 0.00 | 0.00 | 76 | 1010.7 |
| 20260505201928 | 28 | 357 | 3.2 | 3.2 | 0.00 | 0.00 | 0.00 | 76 | 1010.7 |
| 20260505201029 | 28 | 36 | 1.6 | 3.2 | 0.00 | 0.00 | 0.00 | 76 | 1010.9 |
| 20260505200128 | 27 | 66 | 3.2 | 6.4 | 0.00 | 0.00 | 0.00 | 79 | 1010.9 |
| 20260505195229 | 27 | 36 | 3.2 | 6.4 | 0.00 | 0.00 | 0.00 | 80 | 1010.9 |
| 20260505194328 | 27 | 22 | 1.6 | 3.2 | 0.00 | 0.00 | 0.00 | 80 | 1011.0 |
| 20260505193428 | 27 | 26 | 0.0 | 3.2 | 0.00 | 0.00 | 0.00 | 79 | 1011.1 |
| 20260505192529 | 27 | 2 | 1.6 | 6.4 | 0.00 | 0.00 | 0.00 | 82 | 1011.2 |
| 20260505191629 | 27 | 1 | 1.6 | 3.2 | 0.00 | 0.00 | 0.00 | 80 | 1011.2 |
| 20260505190730 | 27 | 51 | 0.0 | 6.4 | 0.00 | 0.00 | 0.00 | 80 | 1011.1 |
| 20260505184028 | 26 | 41 | 1.6 | 6.4 | 0.00 | 0.00 | 0.00 | 83 | 1011.0 |
| 20260505183128 | 27 | 52 | 1.6 | 6.4 | 0.00 | 0.00 | 0.00 | 82 | 1011.1 |
| 20260505182229 | 27 | 40 | 3.2 | 6.4 | 0.00 | 0.00 | 0.00 | 82 | 1011.1 |
| 20260505181330 | 27 | 72 | 3.2 | 6.4 | 0.00 | 0.00 | 0.00 | 81 | 1010.8 |
| 20260505180428 | 26 | 90 | 3.2 | 6.4 | 0.00 | 0.00 | 0.00 | 82 | 1010.8 |
| 20260505175528 | 26 | 63 | 3.2 | 11.3 | 0.00 | 0.00 | 0.00 | 82 | 1010.9 |
| 20260505174630 | 27 | 65 | 6.4 | 11.3 | 0.00 | 0.00 | 0.00 | 80 | 1010.9 |
| 20260505173730 | 27 | 17 | 3.2 | 11.3 | 0.00 | 0.00 | 0.00 | 79 | 1010.9 |
| 20260505172830 | 27 | 64 | 3.2 | 9.7 | 0.00 | 0.00 | 0.00 | 79 | 1011.0 |
| 20260505171028 | 27 | 83 | 3.2 | 12.9 | 0.00 | 0.00 | 0.00 | 80 | 1011.4 |
| 20260505170128 | 26 | 53 | 3.2 | 17.7 | 0.00 | 0.00 | 0.00 | 82 | 1011.4 |
| 20260505164328 | 26 | 51 | 6.4 | 12.9 | 0.00 | 0.00 | 0.00 | 84 | 1011.7 |
| 20260505163428 | 25 | 34 | 6.4 | 12.9 | 0.00 | 0.00 | 0.00 | 85 | 1011.9 |
| 20260505162530 | 25 | 66 | 3.2 | 11.3 | 0.00 | 0.00 | 0.00 | 86 | 1012.0 |
| 20260505160728 | 25 | 72 | 1.6 | 11.3 | 0.00 | 0.00 | 0.00 | 87 | 1012.2 |
| 20260505153129 | 23 | 84 | 3.2 | 9.7 | 0.00 | 0.00 | 0.00 | 92 | 1012.9 |
| 20260505152228 | 23 | 53 | 1.6 | 9.7 | 0.00 | 0.00 | 0.00 | 92 | 1013.0 |
| 20260505151328 | 23 | 33 | 3.2 | 9.7 | 0.00 | 0.00 | 0.00 | 93 | 1013.2 |
| 20260505150428 | 22 | 50 | 4.8 | 12.9 | 0.00 | 0.00 | 0.00 | 94 | 1013.2 |
| 20260505140128 | 22 | 47 | 6.4 | 11.3 | 0.00 | 0.00 | 0.00 | 93 | 1013.4 |
| 20260505124928 | 21 | 60 | 1.6 | 11.3 | 0.00 | 0.00 | 0.00 | 95 | 1013.5 |
| 20260505124028 | 21 | 59 | 6.4 | 11.3 | 0.00 | 0.00 | 0.00 | 96 | 1013.5 |
| 20260505123128 | 20 | 57 | 3.2 | 9.7 | 0.00 | 0.00 | 0.00 | 96 | 1012.9 |
| 20260505122228 | 20 | 64 | 3.2 | 14.5 | 0.00 | 0.00 | 0.00 | 96 | 1013.1 |
| 20260505121328 | 20 | 80 | 6.4 | 12.9 | 0.00 | 0.00 | 0.00 | 96 | 1012.8 |
| 20260505115528 | 19 | 103 | 1.6 | 11.3 | 0.00 | 0.00 | 0.00 | 98 | 1012.7 |
| 20260505113728 | 19 | 62 | 3.2 | 6.4 | 0.00 | 0.00 | 0.00 | 99 | 1012.7 |
| 20260505112828 | 18 | 83 | 3.2 | 11.3 | 0.00 | 0.00 | 0.00 | 99 | 1012.9 |
| 20260505111930 | 18 | 86 | 4.8 | 9.7 | 0.00 | 0.00 | 0.00 | 99 | 1012.8 |
| 20260505111028 | 18 | 89 | 1.6 | 6.4 | 0.00 | 0.00 | 0.00 | 99 | 1012.6 |
| 20260505101628 | 18 | 76 | 3.2 | 9.7 | 0.00 | 0.00 | 0.00 | 99 | 1012.1 |
| 20260505094928 | 17 | 94 | 1.6 | 6.4 | 0.00 | 0.00 | 0.00 | 99 | 1012.0 |
| 20260505094029 | 17 | 99 | 1.6 | 3.2 | 0.00 | 0.00 | 0.00 | 99 | 1012.0 |
| 20260505093128 | 18 | 94 | 1.6 | 3.2 | 0.00 | 0.00 | 0.00 | 99 | 1012.0 |
| 20260505092229 | 18 | 93 | 0.0 | 6.4 | 0.00 | 0.00 | 0.00 | 99 | 1011.8 |
| 20260505091328 | 18 | 98 | 3.2 | 6.4 | 0.00 | 0.00 | 0.00 | 99 | 1011.7 |
| 20260505084628 | 18 | 83 | 3.2 | 6.4 | 0.00 | 0.00 | 0.00 | 99 | 1011.9 |
| 20260505083729 | 18 | 78 | 3.2 | 6.4 | 0.00 | 0.00 | 0.00 | 99 | 1011.7 |
| 20260505082829 | 18 | 102 | 3.2 | 6.4 | 0.00 | 0.00 | 0.00 | 99 | 1011.6 |
| 20260505081928 | 18 | 96 | 0.0 | 6.4 | 0.00 | 0.00 | 0.00 | 99 | 1011.7 |
| 20260505081028 | 18 | 91 | 3.2 | 6.4 | 0.00 | 0.00 | 0.00 | 99 | 1011.8 |
| 20260505080128 | 18 | 84 | 1.6 | 6.4 | 0.00 | 0.00 | 0.00 | 99 | 1012.0 |
| 20260505074328 | 18 | 90 | 3.2 | 6.4 | 0.00 | 0.00 | 0.00 | 99 | 1012.1 |
| 20260505073428 | 18 | 100 | 1.6 | 6.4 | 0.00 | 0.00 | 0.00 | 99 | 1012.0 |
| 20260505072527 | 18 | 92 | 1.6 | 6.4 | 0.00 | 0.00 | 0.00 | 99 | 1012.0 |
| 20260505071628 | 18 | 126 | 3.2 | 6.4 | 0.00 | 0.00 | 0.00 | 99 | 1011.8 |
| 20260505070728 | 18 | 123 | 3.2 | 6.4 | 0.00 | 0.00 | 0.00 | 99 | 1012.0 |
| 20260505065828 | 18 | 100 | 3.2 | 6.4 | 0.00 | 0.00 | 0.00 | 99 | 1012.3 |
| 20260505064928 | 18 | 90 | 0.0 | 6.4 | 0.00 | 0.00 | 0.00 | 99 | 1012.3 |
| 20260505064028 | 18 | 93 | 1.6 | 9.7 | 0.00 | 0.00 | 0.00 | 99 | 1012.4 |
| 20260505063128 | 18 | 80 | 0.0 | 6.4 | 0.00 | 0.00 | 0.00 | 99 | 1012.5 |
| 20260505062230 | 18 | 92 | 1.6 | 3.2 | 0.00 | 0.00 | 0.00 | 99 | 1012.4 |
| 20260505061328 | 18 | 114 | 1.6 | 6.4 | 0.00 | 0.00 | 0.00 | 99 | 1012.3 |
| 20260505060428 | 18 | 93 | 3.2 | 3.2 | 0.00 | 0.00 | 0.00 | 99 | 1012.1 |
| 20260505055528 | 18 | 89 | 1.6 | 3.2 | 0.00 | 0.00 | 0.00 | 99 | 1012.3 |
| 20260505054628 | 18 | 92 | 1.6 | 3.2 | 0.00 | 0.00 | 0.00 | 99 | 1012.4 |
| 20260505053728 | 18 | 90 | 0.0 | 3.2 | 0.00 | 0.00 | 0.00 | 99 | 1012.4 |
| 20260505052828 | 18 | 66 | 1.6 | 3.2 | 0.00 | 0.00 | 0.00 | 99 | 1012.3 |
| 20260505051928 | 18 | 62 | 0.0 | 6.4 | 0.00 | 0.00 | 0.00 | 99 | 1012.4 |
| 20260505051029 | 18 | 75 | 3.2 | 3.2 | 0.00 | 0.00 | 0.00 | 99 | 1012.3 |
| 20260505050128 | 18 | 52 | 0.0 | 6.4 | 0.00 | 0.00 | 0.00 | 99 | 1012.5 |
| 20260505041629 | 18 | 69 | 3.2 | 6.4 | 0.00 | 0.00 | 0.00 | 99 | 1012.7 |
| 20260505040728 | 18 | 79 | 1.6 | 3.2 | 0.00 | 0.00 | 0.00 | 98 | 1012.6 |
| 20260505035828 | 18 | 55 | 1.6 | 3.2 | 0.00 | 0.00 | 0.00 | 98 | 1012.9 |
| 20260505034927 | 19 | 65 | 3.2 | 6.4 | 0.00 | 0.00 | 0.00 | 98 | 1012.9 |
| 20260505034028 | 19 | 82 | 0.0 | 3.2 | 0.00 | 0.00 | 0.00 | 98 | 1012.7 |
| 20260505033127 | 19 | 41 | 0.0 | 6.4 | 0.00 | 0.00 | 0.00 | 98 | 1012.9 |
| 20260505032229 | 19 | 54 | 3.2 | 6.4 | 0.00 | 0.00 | 0.00 | 97 | 1012.8 |
| 20260505030428 | 19 | 50 | 1.6 | 6.4 | 0.00 | 0.00 | 0.00 | 97 | 1012.3 |
| 20260505025528 | 19 | 35 | 1.6 | 9.7 | 0.00 | 0.00 | 0.00 | 97 | 1012.3 |
| 20260505024628 | 19 | 42 | 4.8 | 9.7 | 0.00 | 0.00 | 0.00 | 97 | 1012.3 |
| 20260505023729 | 19 | 35 | 1.6 | 11.3 | 0.00 | 0.00 | 0.00 | 96 | 1012.2 |
| 20260505022828 | 19 | 25 | 3.2 | 9.7 | 0.00 | 0.00 | 0.00 | 96 | 1012.4 |
| 20260505021929 | 19 | 33 | 4.8 | 11.3 | 0.00 | 0.00 | 0.00 | 96 | 1012.2 |
| 20260505021029 | 19 | 35 | 4.8 | 11.3 | 0.00 | 0.00 | 0.00 | 95 | 1012.2 |
| 20260505020128 | 19 | 44 | 3.2 | 11.3 | 0.00 | 0.00 | 0.00 | 95 | 1012.2 |
| 20260505015228 | 19 | 26 | 6.4 | 17.7 | 0.00 | 0.00 | 0.00 | 95 | 1012.1 |
| 20260505014328 | 19 | 26 | 6.4 | 14.5 | 0.00 | 0.00 | 0.00 | 94 | 1012.2 |
| 20260505012529 | 19 | 41 | 4.8 | 14.5 | 0.00 | 0.00 | 0.00 | 94 | 1012.2 |
| 20260505011627 | 19 | 42 | 4.8 | 12.9 | 0.00 | 0.00 | 0.00 | 95 | 1012.2 |
| 20260505005828 | 18 | 36 | 4.8 | 11.3 | 0.00 | 0.00 | 0.00 | 96 | 1012.2 |
| 20260505004028 | 18 | 35 | 8.0 | 12.9 | 0.00 | 0.00 | 0.00 | 96 | 1012.2 |
| 20260505003129 | 18 | 45 | 8.0 | 11.3 | 0.00 | 0.00 | 0.00 | 96 | 1012.2 |
| 20260505000428 | 18 | 66 | 1.6 | 6.4 | 0.00 | 0.00 | 0.00 | 97 | 1011.9 |